Location: Sevilla
(37.3933°N, 5.9839°W)
Time: 04:20:10
(UTC+02:00)

Vanguard 3 - Pass Details

Date: 27 June 2024
Orbit: 508 x 3231 km, 33.4° (Epoch: 15 July)

Event Time Altitude Azimuth Distance (km) Brightness Sun altitude
Rises 13:55:04 0° 275° (W) 4,828 11.0 74.3°
Reaches altitude 10° 13:59:06 10° 270° (W) 3,375 10.4 74.7°
Maximum altitude 14:06:23 43° 202° (SSW) 1,217 9.1 75.2°
Drops below altitude 10° 14:10:54 10° 130° (SE) 2,097 9.6 75.5°
Sets 14:12:53 0° 123° (ESE) 2,843 10.1 75.6°
